AIC907 VOBL-OMDB

Flight info

Callsign AIC907
Flight time 3h 23m
Altitude 40000
Route OPAMO7B OPAMO P574 PAROK Q899 ITURA M762 VAXAS/N0468F240 M762 MIVEK P574 IMPED
Aircraft A359/H-SDE2E3GHIJ1J3J4J5LM1ORWXY/LB1D1

Departure

Time 2026-04-20 01:33
Airport Kempegowda International Airport Bengaluru (VOBL)

Arrival

Time 2026-04-20 04:56
Airport Dubai International Airport (OMDB)
Time Latitude Longitude Altitude Speed Heading
2026-04-20 01:10 13.20091 77.71661 3018 ft 0 kts 180°
2026-04-20 01:23 13.20097 77.71661 3017 ft 2 kts 180°
2026-04-20 01:23 13.20116 77.71661 3017 ft 3 kts 180°
2026-04-20 01:23 13.20130 77.71661 3020 ft 3 kts 180°
2026-04-20 01:24 13.20153 77.71661 3024 ft 2 kts 180°
2026-04-20 01:24 13.20170 77.71659 3022 ft 3 kts 147°
2026-04-20 01:24 13.20181 77.71647 3026 ft 3 kts 101°
2026-04-20 01:24 13.20183 77.71626 3026 ft 3 kts 89°
2026-04-20 01:25 13.20183 77.71618 3026 ft 1 kts 90°
2026-04-20 01:25 13.20183 77.71613 3026 ft 0 kts 90°
2026-04-20 01:27 13.20183 77.71630 3026 ft 7 kts 90°
2026-04-20 01:28 13.20182 77.71714 3017 ft 17 kts 90°
2026-04-20 01:28 13.20191 77.71774 3023 ft 5 kts 52°
2026-04-20 01:28 13.20224 77.71785 3021 ft 5 kts
2026-04-20 01:28 13.20267 77.71788 3025 ft 7 kts
2026-04-20 01:29 13.20318 77.71789 3022 ft 8 kts 359°
2026-04-20 01:29 13.20376 77.71789 3021 ft 9 kts
2026-04-20 01:29 13.20442 77.71789 3024 ft 10 kts
2026-04-20 01:29 13.20510 77.71800 3021 ft 9 kts 37°
2026-04-20 01:30 13.20519 77.71847 3025 ft 7 kts 88°
2026-04-20 01:30 13.20519 77.71902 3025 ft 9 kts 90°
2026-04-20 01:30 13.20519 77.71976 3025 ft 12 kts 90°
2026-04-20 01:30 13.20518 77.72066 3026 ft 14 kts 91°
2026-04-20 01:31 13.20518 77.72166 3025 ft 13 kts 84°
2026-04-20 01:31 13.20581 77.72202 3020 ft 11 kts
2026-04-20 01:31 13.20661 77.72203 3022 ft 12 kts
2026-04-20 01:31 13.20686 77.72184 3026 ft 2 kts 279°
2026-04-20 01:32 13.20691 77.72151 3018 ft 10 kts 275°
2026-04-20 01:32 13.20699 77.71889 3017 ft 66 kts 270°
2026-04-20 01:32 13.20697 77.71233 3018 ft 117 kts 270°
2026-04-20 01:32 13.20708 77.70231 3024 ft 162 kts 270°
2026-04-20 01:33 13.20728 77.69014 3437 ft 170 kts 271°
2026-04-20 01:33 13.20786 77.67816 4001 ft 171 kts 278°
2026-04-20 01:33 13.21361 77.66726 4374 ft 180 kts 310°
2026-04-20 01:33 13.22228 77.65750 4593 ft 192 kts 313°
2026-04-20 01:34 13.23149 77.64702 4802 ft 205 kts 306°
2026-04-20 01:34 13.23943 77.63430 4965 ft 218 kts 300°
2026-04-20 01:34 13.24721 77.62030 5108 ft 235 kts 299°
2026-04-20 01:34 13.25557 77.60515 5317 ft 251 kts 299°
2026-04-20 01:35 13.26448 77.58910 5554 ft 266 kts 300°
2026-04-20 01:35 13.27382 77.57236 5957 ft 273 kts 300°
2026-04-20 01:35 13.28333 77.55538 6444 ft 277 kts 299°
2026-04-20 01:35 13.29416 77.53894 6889 ft 281 kts 312°
2026-04-20 01:36 13.30985 77.52693 7294 ft 285 kts 337°
2026-04-20 01:36 13.32914 77.52291 7779 ft 285 kts
2026-04-20 01:36 13.34818 77.52763 8301 ft 282 kts 28°
2026-04-20 01:36 13.36412 77.53906 8887 ft 279 kts 40°
2026-04-20 01:37 13.38004 77.55034 9490 ft 278 kts 34°
2026-04-20 01:37 13.39659 77.56076 10063 ft 278 kts 34°
2026-04-20 01:37 13.41402 77.57013 10359 ft 291 kts 25°
2026-04-20 01:37 13.43434 77.57481 10553 ft 310 kts
2026-04-20 01:38 13.45593 77.57128 10727 ft 329 kts 345°
2026-04-20 01:38 13.47782 77.56278 10904 ft 342 kts 341°
2026-04-20 01:38 13.50023 77.55329 11088 ft 354 kts 341°
2026-04-20 01:38 13.52329 77.54348 11243 ft 364 kts 341°
2026-04-20 01:39 13.54700 77.53343 11406 ft 374 kts 340°
2026-04-20 01:39 13.57134 77.52313 11621 ft 381 kts 340°
2026-04-20 01:39 13.59593 77.51273 11959 ft 384 kts 340°
2026-04-20 01:39 13.62067 77.50228 12314 ft 386 kts 340°
2026-04-20 01:40 13.64556 77.49178 12668 ft 388 kts 340°
2026-04-20 01:40 13.67060 77.48120 13018 ft 390 kts 340°
2026-04-20 01:40 13.69573 77.47060 13365 ft 392 kts 340°
2026-04-20 01:40 13.72104 77.45992 13709 ft 394 kts 340°
2026-04-20 01:41 13.74649 77.44918 14025 ft 396 kts 340°
2026-04-20 01:41 13.77205 77.43840 14327 ft 398 kts 340°
2026-04-20 01:41 13.79765 77.42759 14646 ft 399 kts 340°
2026-04-20 01:41 13.82341 77.41671 14963 ft 401 kts 340°
2026-04-20 01:42 13.84893 77.40594 15277 ft 402 kts 340°
2026-04-20 01:42 13.87484 77.39499 15582 ft 404 kts 340°
2026-04-20 01:42 13.90094 77.38396 15897 ft 406 kts 339°
2026-04-20 01:42 13.92705 77.37293 16221 ft 407 kts 339°
2026-04-20 01:43 13.95345 77.36177 16535 ft 409 kts 339°
2026-04-20 01:43 13.97992 77.35057 16855 ft 411 kts 339°
2026-04-20 01:43 14.00637 77.33939 17180 ft 413 kts 339°
2026-04-20 01:43 14.03297 77.32813 17481 ft 414 kts 339°
2026-04-20 01:44 14.05975 77.31680 17779 ft 417 kts 339°
2026-04-20 01:44 14.08664 77.30542 18070 ft 419 kts 339°
2026-04-20 01:44 14.11360 77.29401 18357 ft 421 kts 339°
2026-04-20 01:44 14.14080 77.28250 18609 ft 423 kts 338°
2026-04-20 01:45 14.16809 77.27094 18837 ft 426 kts 338°
2026-04-20 01:45 14.19550 77.25933 19110 ft 426 kts 338°
2026-04-20 01:45 14.22302 77.24766 19295 ft 430 kts 338°
2026-04-20 01:45 14.25081 77.23588 19512 ft 433 kts 338°
2026-04-20 01:46 14.27846 77.22415 19658 ft 437 kts 338°
2026-04-20 01:46 14.30658 77.21222 19977 ft 436 kts 338°
2026-04-20 01:46 14.33469 77.20030 20228 ft 438 kts 337°
2026-04-20 01:46 14.36292 77.18832 20525 ft 438 kts 337°
2026-04-20 01:47 14.39112 77.17635 20775 ft 440 kts 337°
2026-04-20 01:47 14.41955 77.16428 20965 ft 442 kts 337°
2026-04-20 01:47 14.44810 77.15215 21190 ft 445 kts 337°
2026-04-20 01:47 14.47683 77.13995 21398 ft 447 kts 337°
2026-04-20 01:48 14.50557 77.12773 21695 ft 447 kts 337°
2026-04-20 01:48 14.53431 77.11547 21927 ft 448 kts 336°
2026-04-20 01:48 14.56223 77.10098 22153 ft 448 kts 327°
2026-04-20 01:48 14.58710 77.08167 22333 ft 449 kts 316°
2026-04-20 01:49 14.60801 77.05762 22558 ft 450 kts 306°
2026-04-20 01:49 14.62514 77.03112 22770 ft 450 kts 299°
2026-04-20 01:49 14.64031 77.00281 22998 ft 451 kts 296°
2026-04-20 01:49 14.65441 76.97383 23228 ft 452 kts 295°
2026-04-20 01:50 14.66817 76.94466 23432 ft 453 kts 294°
2026-04-20 01:50 14.68210 76.91530 23647 ft 455 kts 295°
2026-04-20 01:50 14.69623 76.88601 23836 ft 455 kts 295°
2026-04-20 01:50 14.71057 76.85682 24035 ft 456 kts 295°
2026-04-20 01:51 14.72506 76.82768 24274 ft 455 kts 295°
2026-04-20 01:51 14.73960 76.79865 24470 ft 456 kts 295°
2026-04-20 01:51 14.75424 76.76952 24657 ft 457 kts 295°
2026-04-20 01:51 14.76891 76.74033 24837 ft 458 kts 295°
2026-04-20 01:52 14.78362 76.71106 25025 ft 459 kts 295°
2026-04-20 01:52 14.79833 76.68174 25209 ft 460 kts 295°
2026-04-20 01:52 14.81303 76.65240 25393 ft 461 kts 295°
2026-04-20 01:52 14.82775 76.62302 25574 ft 461 kts 295°
2026-04-20 01:53 14.84251 76.59352 25773 ft 462 kts 295°
2026-04-20 01:53 14.85726 76.56403 25954 ft 463 kts 295°
2026-04-20 01:53 14.87206 76.53442 26152 ft 463 kts 295°
2026-04-20 01:53 14.88668 76.50517 26334 ft 464 kts 295°
2026-04-20 01:54 14.90152 76.47548 26564 ft 464 kts 295°
2026-04-20 01:54 14.91634 76.44582 26787 ft 464 kts 295°
2026-04-20 01:54 14.93118 76.41608 26957 ft 466 kts 295°
2026-04-20 01:54 14.94607 76.38624 27155 ft 467 kts 294°
2026-04-20 01:55 14.96098 76.35636 27331 ft 468 kts 294°
2026-04-20 01:55 14.97588 76.32648 27526 ft 469 kts 294°
2026-04-20 01:55 14.99084 76.29646 27717 ft 469 kts 294°
2026-04-20 01:55 15.00580 76.26644 27905 ft 470 kts 294°
2026-04-20 01:56 15.02081 76.23628 28103 ft 471 kts 294°
2026-04-20 01:56 15.03585 76.20608 28301 ft 472 kts 294°
2026-04-20 01:56 15.05091 76.17583 28487 ft 473 kts 294°
2026-04-20 01:56 15.06582 76.14584 28675 ft 474 kts 294°
2026-04-20 01:57 15.08092 76.11549 28861 ft 476 kts 294°
2026-04-20 01:57 15.09608 76.08500 29033 ft 477 kts 294°
2026-04-20 01:57 15.11123 76.05449 29222 ft 478 kts 294°
2026-04-20 01:57 15.12646 76.02383 29398 ft 479 kts 294°
2026-04-20 01:58 15.14168 75.99318 29582 ft 480 kts 294°
2026-04-20 01:58 15.15730 75.96252 29765 ft 481 kts 295°
2026-04-20 01:58 15.17329 75.93205 29958 ft 483 kts 295°
2026-04-20 01:58 15.18946 75.90158 30110 ft 484 kts 295°
2026-04-20 01:59 15.20572 75.87099 30297 ft 485 kts 295°
2026-04-20 01:59 15.22194 75.84037 30454 ft 485 kts 295°
2026-04-20 01:59 15.23811 75.80973 30606 ft 486 kts 294°
2026-04-20 01:59 15.25432 75.77889 30744 ft 488 kts 294°
2026-04-20 02:00 15.28678 75.71695 31034 ft 491 kts 294°
2026-04-20 02:00 15.30307 75.68582 31187 ft 492 kts 294°
2026-04-20 02:00 15.31939 75.65462 31346 ft 493 kts 294°
2026-04-20 02:01 15.33573 75.62336 31486 ft 493 kts 294°
2026-04-20 02:01 15.35192 75.59240 31646 ft 494 kts 294°
2026-04-20 02:01 15.36850 75.56067 31819 ft 495 kts 294°
2026-04-20 02:01 15.38466 75.52975 32049 ft 493 kts 294°
2026-04-20 02:02 15.40097 75.49852 32291 ft 492 kts 294°
2026-04-20 02:02 15.41731 75.46723 32493 ft 492 kts 294°
2026-04-20 02:02 15.43358 75.43606 32734 ft 491 kts 294°
2026-04-20 02:02 15.44980 75.40496 32999 ft 489 kts 294°
2026-04-20 02:03 15.46597 75.37396 33269 ft 487 kts 294°
2026-04-20 02:03 15.48207 75.34306 33508 ft 486 kts 294°
2026-04-20 02:03 15.49810 75.31228 33766 ft 486 kts 294°
2026-04-20 02:03 15.51419 75.28137 33903 ft 488 kts 294°
2026-04-20 02:04 15.53028 75.25041 34069 ft 488 kts 294°
2026-04-20 02:04 15.54640 75.21940 34270 ft 488 kts 294°
2026-04-20 02:04 15.56247 75.18850 34480 ft 487 kts 294°
2026-04-20 02:04 15.57860 75.15747 34700 ft 487 kts 293°
2026-04-20 02:05 15.59467 75.12655 34904 ft 486 kts 293°
2026-04-20 02:05 15.61071 75.09567 35117 ft 486 kts 293°
2026-04-20 02:05 15.62653 75.06520 35326 ft 486 kts 293°
2026-04-20 02:05 15.64251 75.03440 35611 ft 483 kts 293°
2026-04-20 02:06 15.65861 75.00339 35865 ft 482 kts 293°
2026-04-20 02:06 15.67433 74.97306 36052 ft 483 kts 292°
2026-04-20 02:06 15.69023 74.94235 36216 ft 483 kts 292°
2026-04-20 02:06 15.70614 74.91162 36427 ft 483 kts 292°
2026-04-20 02:07 15.72205 74.88089 36630 ft 483 kts 292°
2026-04-20 02:07 15.73795 74.85015 36850 ft 483 kts 292°
2026-04-20 02:07 15.75385 74.81942 37063 ft 483 kts 292°
2026-04-20 02:07 15.76975 74.78868 37276 ft 483 kts 292°
2026-04-20 02:08 15.78561 74.75800 37485 ft 483 kts 292°
2026-04-20 02:08 15.80149 74.72727 37719 ft 483 kts 292°
2026-04-20 02:08 15.81733 74.69659 37932 ft 482 kts 292°
2026-04-20 02:08 15.83319 74.66588 38120 ft 482 kts 292°
2026-04-20 02:09 15.84903 74.63517 38325 ft 482 kts 292°
2026-04-20 02:09 15.86489 74.60439 38497 ft 482 kts 292°
2026-04-20 02:09 15.88023 74.57361 38684 ft 481 kts 291°
2026-04-20 02:09 15.89523 74.54257 38835 ft 480 kts 290°
2026-04-20 02:10 15.91008 74.51150 38975 ft 480 kts 290°
2026-04-20 02:10 15.92487 74.48054 39122 ft 479 kts 290°
2026-04-20 02:10 15.93973 74.44953 39261 ft 479 kts 290°
2026-04-20 02:10 15.95462 74.41860 39385 ft 478 kts 290°
2026-04-20 02:11 15.97945 74.36720 39588 ft 478 kts 291°
2026-04-20 02:11 15.99434 74.33642 39715 ft 478 kts 291°
2026-04-20 02:11 16.00927 74.30557 39802 ft 478 kts 291°
2026-04-20 02:12 16.03911 74.24387 39946 ft 479 kts 291°
2026-04-20 02:12 16.06901 74.18198 39944 ft 478 kts 291°
2026-04-20 02:13 16.09885 74.12016 39962 ft 478 kts 290°
2026-04-20 02:13 16.12864 74.05838 39932 ft 477 kts 290°
2026-04-20 02:14 16.15835 73.99671 39941 ft 477 kts 290°
2026-04-20 02:14 16.18800 73.93508 39937 ft 477 kts 290°
2026-04-20 02:15 16.21775 73.87333 39926 ft 477 kts 290°
2026-04-20 02:15 16.24736 73.81204 39927 ft 477 kts 290°
2026-04-20 02:16 16.27714 73.75032 39915 ft 477 kts 290°
2026-04-20 02:16 16.30690 73.68859 39914 ft 477 kts 290°
2026-04-20 02:17 16.33670 73.62673 39910 ft 477 kts 290°
2026-04-20 02:17 16.36638 73.56507 39906 ft 477 kts 290°
2026-04-20 02:18 16.39654 73.50351 39913 ft 477 kts 291°
2026-04-20 02:18 16.42714 73.44223 39899 ft 477 kts 291°
2026-04-20 02:19 16.45754 73.38124 39902 ft 477 kts 291°
2026-04-20 02:19 16.48801 73.31982 39893 ft 477 kts 291°
2026-04-20 02:20 16.51843 73.25840 39890 ft 476 kts 291°
2026-04-20 02:20 16.54871 73.19719 39885 ft 475 kts 291°
2026-04-20 02:21 16.59414 73.10522 39885 ft 475 kts 291°
2026-04-20 02:22 16.62379 73.04373 39881 ft 474 kts 290°
2026-04-20 02:22 16.65292 72.98205 39880 ft 474 kts 290°
2026-04-20 02:23 16.68212 72.92033 39892 ft 473 kts 290°
2026-04-20 02:23 16.71120 72.85905 39883 ft 471 kts 290°
2026-04-20 02:24 16.74010 72.79816 39880 ft 471 kts 290°
2026-04-20 02:24 16.76918 72.73684 39881 ft 471 kts 289°
2026-04-20 02:25 16.79818 72.67561 39881 ft 471 kts 289°
2026-04-20 02:25 16.82721 72.61428 39881 ft 471 kts 289°
2026-04-20 02:26 16.85616 72.55308 39879 ft 469 kts 289°
2026-04-20 02:26 16.88498 72.49209 39881 ft 468 kts 289°
2026-04-20 02:27 16.91379 72.43104 39884 ft 468 kts 289°
2026-04-20 02:27 16.94235 72.37045 39881 ft 468 kts 289°
2026-04-20 02:28 16.97127 72.30907 39884 ft 467 kts 289°
2026-04-20 02:28 16.99977 72.24855 39887 ft 466 kts 289°
2026-04-20 02:29 17.02839 72.18769 39880 ft 465 kts 289°
2026-04-20 02:29 17.05692 72.12695 39881 ft 465 kts 289°
2026-04-20 02:30 17.08542 72.06623 39882 ft 465 kts 289°
2026-04-20 02:30 17.11420 72.00558 39883 ft 466 kts 290°
2026-04-20 02:31 17.14345 71.94512 39882 ft 466 kts 290°
2026-04-20 02:31 17.17271 71.88458 39888 ft 466 kts 290°
2026-04-20 02:32 17.20163 71.82453 39882 ft 465 kts 290°
2026-04-20 02:32 17.23089 71.76361 39881 ft 465 kts 290°
2026-04-20 02:33 17.25974 71.70346 39881 ft 465 kts 290°
2026-04-20 02:33 17.28879 71.64287 39881 ft 465 kts 290°
2026-04-20 02:34 17.31779 71.58231 39884 ft 465 kts 290°
2026-04-20 02:34 17.34679 71.52170 39887 ft 465 kts 290°
2026-04-20 02:35 17.37563 71.46148 39886 ft 465 kts 290°
2026-04-20 02:35 17.40454 71.40096 39886 ft 465 kts 289°
2026-04-20 02:36 17.43343 71.34035 39886 ft 465 kts 289°
2026-04-20 02:36 17.46230 71.27976 39884 ft 465 kts 289°
2026-04-20 02:37 17.49121 71.21904 39882 ft 465 kts 289°
2026-04-20 02:37 17.52008 71.15839 39901 ft 465 kts 289°
2026-04-20 02:38 17.54893 71.09769 39888 ft 466 kts 289°
2026-04-20 02:38 17.57785 71.03680 39889 ft 466 kts 289°
2026-04-20 02:39 17.60670 70.97600 39889 ft 466 kts 289°
2026-04-20 02:39 17.63533 70.91561 39889 ft 466 kts 289°
2026-04-20 02:40 17.66413 70.85478 39888 ft 466 kts 289°
2026-04-20 02:40 17.69293 70.79390 39887 ft 466 kts 289°
2026-04-20 02:41 17.72176 70.73291 39886 ft 466 kts 289°
2026-04-20 02:41 17.75056 70.67192 39887 ft 466 kts 289°
2026-04-20 02:42 17.77934 70.61090 39889 ft 466 kts 289°
2026-04-20 02:42 17.80812 70.54989 39889 ft 466 kts 289°
2026-04-20 02:43 17.83669 70.48912 39888 ft 466 kts 289°
2026-04-20 02:43 17.86551 70.42768 39878 ft 466 kts 289°
2026-04-20 02:44 17.89399 70.36696 39895 ft 466 kts 289°
2026-04-20 02:44 17.92261 70.30590 39893 ft 466 kts 289°
2026-04-20 02:45 17.95123 70.24477 39894 ft 466 kts 289°
2026-04-20 02:45 17.97986 70.18358 39896 ft 466 kts 290°
2026-04-20 02:46 18.00839 70.12254 39894 ft 465 kts 290°
2026-04-20 02:46 18.03687 70.06156 39889 ft 465 kts 290°
2026-04-20 02:47 18.06530 70.00058 39890 ft 464 kts 290°
2026-04-20 02:47 18.09366 69.93973 39894 ft 463 kts 290°
2026-04-20 02:48 18.12196 69.87893 39891 ft 463 kts 290°
2026-04-20 02:48 18.15006 69.81849 39894 ft 463 kts 290°
2026-04-20 02:49 18.17829 69.75773 39902 ft 462 kts 290°
2026-04-20 02:49 18.20652 69.69690 39896 ft 462 kts 290°
2026-04-20 02:50 18.23470 69.63613 39894 ft 462 kts 290°
2026-04-20 02:50 18.26289 69.57527 39897 ft 462 kts 290°
2026-04-20 02:51 18.29096 69.51459 39905 ft 462 kts 290°
2026-04-20 02:51 18.31904 69.45380 39910 ft 462 kts 290°
2026-04-20 02:52 18.34712 69.39301 39900 ft 461 kts 290°
2026-04-20 02:52 18.37516 69.33226 39900 ft 461 kts 290°
2026-04-20 02:53 18.40350 69.27172 39900 ft 462 kts 292°
2026-04-20 02:53 18.43425 69.21202 39903 ft 464 kts 293°
2026-04-20 02:54 18.46541 69.15262 39906 ft 463 kts 293°
2026-04-20 02:54 18.49621 69.09315 39906 ft 462 kts 293°
2026-04-20 02:55 18.52675 69.03358 39903 ft 462 kts 293°
2026-04-20 02:55 18.55720 68.97397 39902 ft 462 kts 293°
2026-04-20 02:56 18.58761 68.91437 39901 ft 462 kts 293°
2026-04-20 02:56 18.61781 68.85518 39914 ft 461 kts 294°
2026-04-20 02:57 18.64839 68.79518 39909 ft 461 kts 294°
2026-04-20 02:57 18.67853 68.73601 39908 ft 461 kts 294°
2026-04-20 02:58 18.70890 68.67632 39909 ft 461 kts 294°
2026-04-20 02:58 18.73921 68.61669 39910 ft 461 kts 294°
2026-04-20 02:59 18.76949 68.55706 39909 ft 461 kts 294°
2026-04-20 02:59 18.79975 68.49740 39908 ft 461 kts 294°
2026-04-20 03:00 18.82492 68.44774 39914 ft 461 kts 294°
2026-04-20 03:00 18.85520 68.38795 39913 ft 463 kts 294°
2026-04-20 03:01 18.88554 68.32796 39915 ft 463 kts 294°
2026-04-20 03:01 18.91589 68.26792 39910 ft 463 kts 294°
2026-04-20 03:02 18.94632 68.20765 39911 ft 463 kts 294°
2026-04-20 03:02 18.97661 68.14760 39912 ft 463 kts 294°
2026-04-20 03:03 19.00686 68.08755 39913 ft 463 kts 294°
2026-04-20 03:03 19.03710 68.02748 39912 ft 463 kts 294°
2026-04-20 03:04 19.06723 67.96784 39911 ft 463 kts 295°
2026-04-20 03:04 19.09811 67.90800 39917 ft 463 kts 295°
2026-04-20 03:05 19.12909 67.84814 39913 ft 464 kts 295°
2026-04-20 03:05 19.15997 67.78825 39913 ft 464 kts 295°
2026-04-20 03:06 19.19075 67.72838 39912 ft 464 kts 295°
2026-04-20 03:06 19.22151 67.66844 39911 ft 464 kts 295°
2026-04-20 03:07 19.25229 67.60840 39908 ft 464 kts 295°
2026-04-20 03:07 19.28299 67.54847 39909 ft 464 kts 295°
2026-04-20 03:08 19.31370 67.48847 39915 ft 462 kts 295°
2026-04-20 03:08 19.34432 67.42856 39924 ft 462 kts 296°
2026-04-20 03:09 19.37472 67.36904 39912 ft 462 kts 296°
2026-04-20 03:09 19.40528 67.30915 39909 ft 462 kts 296°
2026-04-20 03:10 19.43586 67.24915 39913 ft 462 kts 296°
2026-04-20 03:10 19.46637 67.18922 39914 ft 462 kts 296°
2026-04-20 03:11 19.49686 67.12927 39916 ft 461 kts 296°
2026-04-20 03:11 19.52727 67.06944 39914 ft 461 kts 296°
2026-04-20 03:12 19.55744 67.01000 39916 ft 461 kts 296°
2026-04-20 03:12 19.58781 66.95011 39924 ft 461 kts 296°
2026-04-20 03:13 19.61816 66.89020 39913 ft 461 kts 296°
2026-04-20 03:13 19.64851 66.83023 39916 ft 461 kts 296°
2026-04-20 03:14 19.67880 66.77030 39914 ft 461 kts 296°
2026-04-20 03:14 19.70908 66.71034 39914 ft 461 kts 296°
2026-04-20 03:15 19.73934 66.65037 39917 ft 461 kts 296°
2026-04-20 03:15 19.76959 66.59034 39914 ft 461 kts 296°
2026-04-20 03:16 19.79960 66.53073 39912 ft 461 kts 296°
2026-04-20 03:16 19.82986 66.47055 39913 ft 461 kts 296°
2026-04-20 03:17 19.86010 66.41036 39914 ft 463 kts 296°
2026-04-20 03:17 19.89048 66.34983 39916 ft 463 kts 296°
2026-04-20 03:18 19.92078 66.28938 39915 ft 463 kts 296°
2026-04-20 03:18 19.95107 66.22891 39914 ft 463 kts 296°
2026-04-20 03:19 19.98113 66.16881 39912 ft 463 kts 296°
2026-04-20 03:19 20.01135 66.10835 39911 ft 463 kts 296°
2026-04-20 03:20 20.04150 66.04797 39914 ft 463 kts 296°
2026-04-20 03:20 20.07163 65.98754 39918 ft 462 kts 296°
2026-04-20 03:21 20.10179 65.92698 39914 ft 463 kts 296°
2026-04-20 03:21 20.13189 65.86650 39914 ft 462 kts 296°
2026-04-20 03:22 20.16196 65.80602 39910 ft 461 kts 296°
2026-04-20 03:22 20.19196 65.74560 39911 ft 461 kts 296°
2026-04-20 03:23 20.22191 65.68521 39914 ft 461 kts 296°
2026-04-20 03:23 20.25167 65.62515 39914 ft 461 kts 296°
2026-04-20 03:24 20.28157 65.56474 39913 ft 460 kts 296°
2026-04-20 03:24 20.31141 65.50439 39914 ft 460 kts 296°
2026-04-20 03:25 20.34117 65.44413 39914 ft 460 kts 296°
2026-04-20 03:25 20.37101 65.38364 39914 ft 460 kts 296°
2026-04-20 03:26 20.40074 65.32332 39913 ft 460 kts 296°
2026-04-20 03:26 20.43025 65.26336 39913 ft 459 kts 296°
2026-04-20 03:27 20.45984 65.20319 39911 ft 458 kts 296°
2026-04-20 03:27 20.48941 65.14301 39911 ft 458 kts 296°
2026-04-20 03:28 20.51899 65.08272 39913 ft 458 kts 296°
2026-04-20 03:28 20.56325 64.99241 39914 ft 458 kts 296°
2026-04-20 03:29 20.59309 64.93241 39911 ft 457 kts 297°
2026-04-20 03:29 20.62312 64.87256 39911 ft 457 kts 297°
2026-04-20 03:30 20.65309 64.81269 39914 ft 457 kts 297°
2026-04-20 03:30 20.68307 64.75258 39914 ft 457 kts 297°
2026-04-20 03:31 20.71274 64.69299 39911 ft 457 kts 297°
2026-04-20 03:31 20.74256 64.63303 39908 ft 457 kts 297°
2026-04-20 03:32 20.77235 64.57306 39911 ft 457 kts 297°
2026-04-20 03:32 20.80211 64.51308 39911 ft 457 kts 297°
2026-04-20 03:33 20.83186 64.45305 39914 ft 457 kts 297°
2026-04-20 03:33 20.86160 64.39300 39914 ft 457 kts 297°
2026-04-20 03:34 20.89133 64.33291 39910 ft 457 kts 297°
2026-04-20 03:34 20.92098 64.27290 39911 ft 456 kts 297°
2026-04-20 03:35 20.95065 64.21277 39911 ft 456 kts 297°
2026-04-20 03:35 20.98026 64.15272 39911 ft 456 kts 297°
2026-04-20 03:36 21.00968 64.09296 39915 ft 456 kts 297°
2026-04-20 03:36 21.03926 64.03283 39908 ft 456 kts 297°
2026-04-20 03:37 21.06880 63.97271 39911 ft 456 kts 297°
2026-04-20 03:37 21.09832 63.91258 39911 ft 456 kts 297°
2026-04-20 03:38 21.12780 63.85244 39908 ft 456 kts 297°
2026-04-20 03:38 21.15725 63.79230 39908 ft 456 kts 297°
2026-04-20 03:39 21.18670 63.73209 39903 ft 456 kts 297°
2026-04-20 03:39 21.21622 63.67167 39911 ft 456 kts 297°
2026-04-20 03:40 21.24563 63.61142 39911 ft 456 kts 297°
2026-04-20 03:40 21.27484 63.55150 39911 ft 456 kts 297°
2026-04-20 03:41 21.30425 63.49112 39911 ft 456 kts 297°
2026-04-20 03:41 21.33361 63.43076 39905 ft 456 kts 297°
2026-04-20 03:42 21.36314 63.36998 39911 ft 457 kts 297°
2026-04-20 03:42 21.39237 63.30975 39945 ft 459 kts 297°
2026-04-20 03:43 21.40708 63.27940 40096 ft 458 kts 297°
2026-04-20 03:43 21.42176 63.24911 40274 ft 457 kts 297°
2026-04-20 03:43 21.43642 63.21886 40419 ft 456 kts 297°
2026-04-20 03:43 21.45103 63.18867 40548 ft 456 kts 297°
2026-04-20 03:44 21.48030 63.12814 40756 ft 456 kts 297°
2026-04-20 03:44 21.49490 63.09794 40868 ft 456 kts 298°
2026-04-20 03:44 21.50950 63.06770 40967 ft 456 kts 298°
2026-04-20 03:45 21.53867 63.00724 41168 ft 456 kts 298°
2026-04-20 03:45 21.55325 62.97702 41279 ft 455 kts 298°
2026-04-20 03:45 21.56781 62.94681 41350 ft 455 kts 298°
2026-04-20 03:46 21.59199 62.89657 41524 ft 455 kts 298°
2026-04-20 03:46 21.62104 62.83618 41697 ft 455 kts 297°
2026-04-20 03:47 21.65003 62.77583 41878 ft 454 kts 298°
2026-04-20 03:47 21.67903 62.71540 42021 ft 454 kts 298°
2026-04-20 03:48 21.70800 62.65497 42147 ft 454 kts 298°
2026-04-20 03:48 21.73670 62.59501 42309 ft 453 kts 298°
2026-04-20 03:49 21.76553 62.53472 42425 ft 453 kts 298°
2026-04-20 03:49 21.79425 62.47458 42649 ft 450 kts 298°
2026-04-20 03:50 21.82285 62.41464 42755 ft 450 kts 298°
2026-04-20 03:50 21.85131 62.35455 42566 ft 450 kts 296°
2026-04-20 03:51 21.86451 62.32401 41953 ft 451 kts 295°
2026-04-20 03:51 21.87717 62.29297 41163 ft 454 kts 294°
2026-04-20 03:51 21.88969 62.26161 40427 ft 456 kts 294°
2026-04-20 03:51 21.90225 62.23018 40028 ft 456 kts 295°
2026-04-20 03:52 21.91490 62.19882 39920 ft 458 kts 295°
2026-04-20 03:52 21.92770 62.16739 39908 ft 458 kts 295°
2026-04-20 03:52 21.95350 62.10464 39909 ft 458 kts 295°
2026-04-20 03:53 21.97939 62.04191 39906 ft 458 kts 295°
2026-04-20 03:53 22.00522 61.97923 39908 ft 458 kts 295°
2026-04-20 03:54 22.03101 61.91651 39898 ft 457 kts 296°
2026-04-20 03:54 22.05660 61.85418 39908 ft 456 kts 296°
2026-04-20 03:55 22.08223 61.79169 39911 ft 456 kts 296°
2026-04-20 03:55 22.10784 61.72915 39910 ft 455 kts 296°
2026-04-20 03:56 22.13339 61.66670 39903 ft 455 kts 296°
2026-04-20 03:56 22.15892 61.60421 39901 ft 455 kts 296°
2026-04-20 03:57 22.18442 61.54169 39903 ft 455 kts 296°
2026-04-20 03:57 22.20991 61.47914 39906 ft 455 kts 296°
2026-04-20 03:58 22.23536 61.41658 39903 ft 455 kts 296°
2026-04-20 03:58 22.26079 61.35401 39903 ft 455 kts 296°
2026-04-20 03:59 22.28617 61.29145 39897 ft 454 kts 296°
2026-04-20 03:59 22.31142 61.22913 39899 ft 453 kts 296°
2026-04-20 04:00 22.33666 61.16681 39899 ft 453 kts 296°
2026-04-20 04:00 22.36186 61.10449 39901 ft 452 kts 296°
2026-04-20 04:01 22.38703 61.04215 39891 ft 453 kts 296°
2026-04-20 04:01 22.41213 60.97987 39895 ft 451 kts 297°
2026-04-20 04:02 22.43702 60.91806 39894 ft 451 kts 296°
2026-04-20 04:02 22.46205 60.85584 39892 ft 451 kts 296°
2026-04-20 04:03 22.48700 60.79372 39895 ft 451 kts 296°
2026-04-20 04:03 22.51197 60.73145 39887 ft 451 kts 297°
2026-04-20 04:04 22.53688 60.66927 39891 ft 450 kts 297°
2026-04-20 04:04 22.56181 60.60695 39890 ft 450 kts 297°
2026-04-20 04:05 22.58666 60.54476 39891 ft 450 kts 297°
2026-04-20 04:05 22.61155 60.48250 39886 ft 450 kts 297°
2026-04-20 04:06 22.63619 60.42065 39883 ft 449 kts 297°
2026-04-20 04:06 22.66087 60.35861 39889 ft 448 kts 297°
2026-04-20 04:07 22.68551 60.29664 39888 ft 448 kts 297°
2026-04-20 04:07 22.71019 60.23450 39883 ft 448 kts 297°
2026-04-20 04:08 22.73476 60.17255 39869 ft 448 kts 297°
2026-04-20 04:08 22.75924 60.11069 39883 ft 445 kts 297°
2026-04-20 04:09 22.78360 60.04911 39882 ft 444 kts 298°
2026-04-20 04:09 22.80781 59.98785 39883 ft 444 kts 297°
2026-04-20 04:10 22.83212 59.92623 39874 ft 444 kts 297°
2026-04-20 04:10 22.85640 59.86466 39872 ft 444 kts 298°
2026-04-20 04:11 22.88063 59.80317 39872 ft 443 kts 298°
2026-04-20 04:11 22.90477 59.74167 39872 ft 443 kts 297°
2026-04-20 04:12 22.92886 59.68024 39864 ft 443 kts 297°
2026-04-20 04:12 22.95297 59.61872 39881 ft 443 kts 297°
2026-04-20 04:13 22.97690 59.55759 39870 ft 442 kts 297°
2026-04-20 04:13 23.00089 59.49622 39867 ft 441 kts 297°
2026-04-20 04:14 23.02484 59.43487 39860 ft 441 kts 297°
2026-04-20 04:14 23.04881 59.37342 39882 ft 442 kts 297°
2026-04-20 04:15 23.07272 59.31188 39868 ft 442 kts 297°
2026-04-20 04:15 23.09633 59.25053 39874 ft 439 kts 297°
2026-04-20 04:16 23.11982 59.18944 39874 ft 438 kts 297°
2026-04-20 04:16 23.14332 59.12839 39875 ft 438 kts 297°
2026-04-20 04:17 23.16676 59.06735 39865 ft 438 kts 297°
2026-04-20 04:17 23.18523 59.00418 39880 ft 442 kts 291°
2026-04-20 04:18 23.20125 58.93963 39883 ft 442 kts 290°
2026-04-20 04:18 23.21679 58.87508 39867 ft 442 kts 290°
2026-04-20 04:19 23.22977 58.82115 39873 ft 442 kts 290°
2026-04-20 04:19 23.24539 58.75650 39860 ft 442 kts 290°
2026-04-20 04:20 23.26101 58.69191 39883 ft 442 kts 290°
2026-04-20 04:20 23.27662 58.62727 39867 ft 442 kts 290°
2026-04-20 04:21 23.29218 58.56270 39860 ft 442 kts 290°
2026-04-20 04:21 23.30773 58.49804 39863 ft 442 kts 290°
2026-04-20 04:22 23.32327 58.43334 39883 ft 441 kts 290°
2026-04-20 04:22 23.33860 58.36938 39874 ft 439 kts 290°
2026-04-20 04:23 23.35398 58.30512 39849 ft 438 kts 289°
2026-04-20 04:23 23.36922 58.24071 39857 ft 440 kts 290°
2026-04-20 04:24 23.38457 58.17624 39858 ft 439 kts 290°
2026-04-20 04:24 23.40559 58.11490 39878 ft 428 kts 302°
2026-04-20 04:25 23.43741 58.06060 39870 ft 424 kts 308°
2026-04-20 04:25 23.47166 58.00814 39895 ft 425 kts 309°
2026-04-20 04:26 23.50619 57.95595 39886 ft 424 kts 308°
2026-04-20 04:26 23.54035 57.90398 39898 ft 424 kts 308°
2026-04-20 04:27 23.55753 57.87772 39780 ft 424 kts 308°
2026-04-20 04:27 23.57459 57.85157 39551 ft 423 kts 308°
2026-04-20 04:27 23.59163 57.82543 39318 ft 423 kts 308°
2026-04-20 04:27 23.60903 57.79961 39104 ft 422 kts 310°
2026-04-20 04:28 23.62698 57.77439 38870 ft 421 kts 311°
2026-04-20 04:28 23.64520 57.74937 38628 ft 421 kts 311°
2026-04-20 04:28 23.66348 57.72437 38380 ft 420 kts 311°
2026-04-20 04:28 23.68166 57.69941 38113 ft 422 kts 311°
2026-04-20 04:29 23.69991 57.67420 37844 ft 425 kts 311°
2026-04-20 04:29 23.71821 57.64875 37567 ft 427 kts 311°
2026-04-20 04:29 23.73659 57.62308 37314 ft 429 kts 310°
2026-04-20 04:29 23.75499 57.59731 37046 ft 431 kts 310°
2026-04-20 04:30 23.77349 57.57137 36783 ft 434 kts 310°
2026-04-20 04:30 23.79212 57.54527 36541 ft 437 kts 310°
2026-04-20 04:30 23.80454 57.52784 36365 ft 439 kts 310°
2026-04-20 04:30 23.82974 57.49243 36036 ft 444 kts 310°
2026-04-20 04:31 23.84852 57.46603 35796 ft 447 kts 310°
2026-04-20 04:31 23.86764 57.43913 35555 ft 450 kts 310°
2026-04-20 04:31 23.88691 57.41202 35309 ft 453 kts 310°
2026-04-20 04:31 23.90630 57.38473 35073 ft 456 kts 310°
2026-04-20 04:32 23.92582 57.35726 34847 ft 459 kts 309°
2026-04-20 04:32 23.94546 57.32960 34614 ft 462 kts 309°
2026-04-20 04:32 23.95882 57.31077 34457 ft 464 kts 309°
2026-04-20 04:32 23.97841 57.28315 34227 ft 468 kts 309°
2026-04-20 04:33 23.99840 57.25494 33996 ft 471 kts 309°
2026-04-20 04:33 24.01854 57.22652 33744 ft 474 kts 309°
2026-04-20 04:33 24.03878 57.19792 33488 ft 476 kts 309°
2026-04-20 04:33 24.05909 57.16923 33215 ft 478 kts 309°
2026-04-20 04:34 24.07953 57.14032 32971 ft 480 kts 309°
2026-04-20 04:34 24.10001 57.11136 32713 ft 482 kts 308°
2026-04-20 04:34 24.12053 57.08231 32467 ft 483 kts 308°
2026-04-20 04:34 24.14108 57.05320 32204 ft 484 kts 308°
2026-04-20 04:35 24.16168 57.02400 31959 ft 485 kts 308°
2026-04-20 04:35 24.18230 56.99475 31712 ft 487 kts 307°
2026-04-20 04:35 24.20308 56.96526 31467 ft 489 kts 307°
2026-04-20 04:35 24.22390 56.93572 31222 ft 490 kts 307°
2026-04-20 04:36 24.26567 56.87639 30708 ft 493 kts 307°
2026-04-20 04:36 24.28662 56.84656 29826 ft 494 kts 307°
2026-04-20 04:36 24.30761 56.81663 28795 ft 496 kts 307°
2026-04-20 04:37 24.32857 56.78672 28147 ft 491 kts 307°
2026-04-20 04:37 24.34931 56.75712 27467 ft 486 kts 307°
2026-04-20 04:37 24.36959 56.72817 26784 ft 482 kts 307°
2026-04-20 04:37 24.39020 56.69874 26105 ft 479 kts 307°
2026-04-20 04:38 24.41042 56.66986 25434 ft 475 kts 307°
2026-04-20 04:38 24.43075 56.64143 24762 ft 472 kts 310°
2026-04-20 04:38 24.45244 56.61449 24085 ft 469 kts 311°
2026-04-20 04:38 24.47442 56.58814 23405 ft 466 kts 312°
2026-04-20 04:39 24.49647 56.56221 22679 ft 462 kts 313°
2026-04-20 04:39 24.51816 56.53694 22027 ft 457 kts 313°
2026-04-20 04:39 24.53984 56.51175 21361 ft 452 kts 313°
2026-04-20 04:39 24.56132 56.48674 20697 ft 448 kts 313°
2026-04-20 04:40 24.58262 56.46188 20032 ft 444 kts 313°
2026-04-20 04:40 24.60366 56.43728 19370 ft 440 kts 313°
2026-04-20 04:40 24.62452 56.41284 18724 ft 437 kts 314°
2026-04-20 04:40 24.64523 56.38854 18024 ft 434 kts 314°
2026-04-20 04:41 24.66580 56.36440 17296 ft 430 kts 314°
2026-04-20 04:41 24.68615 56.34049 16606 ft 426 kts 314°
2026-04-20 04:41 24.70623 56.31676 15932 ft 421 kts 313°
2026-04-20 04:41 24.72395 56.29125 15247 ft 418 kts 305°
2026-04-20 04:42 24.74009 56.26485 14595 ft 414 kts 304°
2026-04-20 04:42 24.75580 56.23840 13947 ft 410 kts 304°
2026-04-20 04:42 24.77123 56.21217 13243 ft 406 kts 304°
2026-04-20 04:42 24.78642 56.18623 12556 ft 401 kts 304°
2026-04-20 04:43 24.80142 56.16052 11902 ft 396 kts 304°
2026-04-20 04:43 24.81626 56.13509 11227 ft 391 kts 304°
2026-04-20 04:43 24.83067 56.11036 10947 ft 377 kts 304°
2026-04-20 04:43 24.84454 56.08650 10732 ft 361 kts 304°
2026-04-20 04:44 24.85776 56.06376 10622 ft 344 kts 304°
2026-04-20 04:44 24.87037 56.04208 10481 ft 328 kts 304°
2026-04-20 04:44 24.88239 56.02139 10376 ft 313 kts 304°
2026-04-20 04:44 24.89387 56.00162 10233 ft 300 kts 304°
2026-04-20 04:45 24.90486 55.98269 10112 ft 288 kts 304°
2026-04-20 04:45 24.91554 55.96431 9819 ft 281 kts 304°
2026-04-20 04:45 24.92594 55.94639 9467 ft 282 kts 304°
2026-04-20 04:45 24.93652 55.92816 9118 ft 282 kts 304°
2026-04-20 04:46 24.94708 55.90998 8772 ft 281 kts 304°
2026-04-20 04:46 24.95761 55.89181 8427 ft 281 kts 304°
2026-04-20 04:46 24.96813 55.87367 8084 ft 281 kts 304°
2026-04-20 04:46 24.97862 55.85555 7738 ft 280 kts 304°
2026-04-20 04:47 24.98910 55.83746 7397 ft 280 kts 304°
2026-04-20 04:47 24.99957 55.81939 7055 ft 279 kts 304°
2026-04-20 04:47 25.00988 55.80124 6703 ft 279 kts 302°
2026-04-20 04:47 25.01999 55.78299 6364 ft 279 kts 302°
2026-04-20 04:48 25.03084 55.76537 6014 ft 277 kts 306°
2026-04-20 04:48 25.04123 55.74756 5670 ft 276 kts 302°
2026-04-20 04:48 25.05114 55.72951 5333 ft 275 kts 302°
2026-04-20 04:48 25.06088 55.71181 5153 ft 264 kts 302°
2026-04-20 04:49 25.07006 55.69489 5078 ft 249 kts 301°
2026-04-20 04:49 25.07850 55.67892 5055 ft 233 kts 302°
2026-04-20 04:49 25.08661 55.66417 5043 ft 216 kts 302°
2026-04-20 04:49 25.09424 55.65063 5061 ft 202 kts 302°
2026-04-20 04:50 25.10153 55.63757 4950 ft 198 kts 302°
2026-04-20 04:50 25.10869 55.62469 4709 ft 196 kts 302°
2026-04-20 04:50 25.11581 55.61187 4412 ft 196 kts 302°
2026-04-20 04:50 25.12292 55.59905 4095 ft 195 kts 302°
2026-04-20 04:51 25.12998 55.58632 3816 ft 194 kts 302°
2026-04-20 04:51 25.13700 55.57365 3578 ft 193 kts 302°
2026-04-20 04:51 25.14401 55.56100 3329 ft 193 kts 302°
2026-04-20 04:51 25.15100 55.54839 3086 ft 192 kts 302°
2026-04-20 04:52 25.15797 55.53582 2835 ft 192 kts 302°
2026-04-20 04:52 25.16489 55.52331 2604 ft 191 kts 302°
2026-04-20 04:52 25.17178 55.51086 2380 ft 187 kts 302°
2026-04-20 04:52 25.17851 55.49869 2127 ft 183 kts 301°
2026-04-20 04:53 25.18490 55.48711 1885 ft 169 kts 301°
2026-04-20 04:53 25.19079 55.47642 1659 ft 158 kts 301°
2026-04-20 04:53 25.19633 55.46632 1419 ft 149 kts 301°
2026-04-20 04:53 25.20155 55.45677 1215 ft 142 kts 301°
2026-04-20 04:54 25.20672 55.44756 1054 ft 140 kts 302°
2026-04-20 04:54 25.21185 55.43827 956 ft 142 kts 301°
2026-04-20 04:54 25.21694 55.42891 765 ft 141 kts 302°
2026-04-20 04:54 25.22224 55.41971 617 ft 141 kts 297°
2026-04-20 04:55 25.22727 55.41032 407 ft 142 kts 302°
2026-04-20 04:55 25.23252 55.40094 222 ft 145 kts 301°
2026-04-20 04:55 25.23768 55.39166 54 ft 140 kts 300°
2026-04-20 04:55 25.24255 55.38286 36 ft 124 kts 300°
2026-04-20 04:56 25.24632 55.37607 29 ft 81 kts 302°
2026-04-20 04:56 25.24846 55.37225 31 ft 46 kts 301°
2026-04-20 04:56 25.24994 55.36926 31 ft 43 kts 289°
2026-04-20 04:56 25.25024 55.36664 28 ft 29 kts 271°
2026-04-20 04:57 25.25029 55.36487 28 ft 23 kts 276°
2026-04-20 04:57 25.25089 55.36317 28 ft 25 kts 301°
2026-04-20 04:57 25.25179 55.36151 28 ft 26 kts 302°
2026-04-20 04:57 25.25279 55.35978 27 ft 27 kts 302°
2026-04-20 04:58 25.25382 55.35795 27 ft 29 kts 302°
2026-04-20 04:58 25.25489 55.35603 27 ft 30 kts 302°
2026-04-20 04:58 25.25599 55.35408 27 ft 28 kts 303°
2026-04-20 04:58 25.25705 55.35223 27 ft 28 kts 302°
2026-04-20 04:59 25.25771 55.35104 27 ft 12 kts 301°
2026-04-20 04:59 25.25788 55.35033 27 ft 5 kts 260°
2026-04-20 04:59 25.25775 55.35009 27 ft 3 kts 239°
2026-04-20 04:59 25.25770 55.35001 27 ft 0 kts 239°
2026-04-20 05:00 25.25763 55.34987 27 ft 7 kts 239°
2026-04-20 05:00 25.25742 55.34932 27 ft 7 kts 255°
2026-04-20 05:00 25.25733 55.34883 27 ft 6 kts 259°
2026-04-20 05:00 25.25727 55.34848 27 ft 4 kts 259°
2026-04-20 05:01 25.25723 55.34825 29 ft 2 kts 259°
2026-04-20 05:01 25.25722 55.34818 29 ft 0 kts 260°
2026-04-20 05:01 25.25721 55.34815 28 ft 0 kts 259°
2026-04-20 05:01 25.25721 55.34814 28 ft 0 kts 260°